| time (UTC) | temp F | wind direction | speed MPH | gust MPH | rain 1hr in | rain 24hr in | rain mn in | humidity % | barometer mb |
| 20260905161356 | 75 | 94 | 1.0 | 1.0 | 0.00 | 0.01 | 0.01 | 89 | 1012.2 |
| 20260905160854 | 75 | 126 | 1.0 | 1.0 | 0.00 | 0.01 | 0.01 | 88 | 1012.5 |
| 20260905160349 | 76 | 31 | 0.0 | 0.0 | 0.00 | 0.01 | 0.01 | 89 | 1012.2 |
| 20260905155843 | 77 | 31 | 1.0 | 1.0 | 0.00 | 0.01 | 0.01 | 87 | 1012.5 |
| 20260905155343 | 77 | 184 | 0.0 | 0.0 | 0.00 | 0.01 | 0.01 | 86 | 1012.3 |
| 20260905154842 | 77 | 78 | 0.0 | 0.0 | 0.00 | 0.01 | 0.01 | 87 | 1012.4 |
| 20260905154338 | 76 | 76 | 0.0 | 0.0 | 0.00 | 0.01 | 0.01 | 88 | 1012.4 |
| 20260905153833 | 75 | 70 | 0.0 | 0.0 | 0.00 | 0.01 | 0.01 | 87 | 1012.3 |
| 20260905153330 | 75 | 72 | 0.0 | 0.0 | 0.00 | 0.01 | 0.01 | 88 | 1012.2 |
| 20260905152824 | 75 | 44 | 0.0 | 0.0 | 0.00 | 0.01 | 0.01 | 90 | 1012.1 |
| 20260905152323 | 75 | 33 | 0.0 | 0.0 | 0.00 | 0.01 | 0.01 | 90 | 1012.1 |
| 20260905151818 | 75 | 53 | 0.0 | 0.0 | 0.00 | 0.01 | 0.01 | 89 | 1012.1 |
| 20260905151314 | 75 | 88 | 0.0 | 0.0 | 0.00 | 0.01 | 0.01 | 90 | 1012.1 |
| 20260905150814 | 75 | 88 | 0.0 | 0.0 | 0.00 | 0.01 | 0.01 | 91 | 1012.0 |
| 20260905150313 | 75 | 94 | 0.0 | 0.0 | 0.00 | 0.01 | 0.01 | 90 | 1011.9 |
| 20260905145810 | 75 | 133 | 0.0 | 0.0 | 0.00 | 0.01 | 0.01 | 90 | 1012.1 |
| 20260905145306 | 74 | 131 | 1.0 | 1.0 | 0.00 | 0.01 | 0.01 | 92 | 1012.0 |
| 20260905144804 | 74 | 110 | 0.0 | 0.0 | 0.00 | 0.01 | 0.01 | 93 | 1012.0 |
| 20260905144300 | 73 | 36 | 0.0 | 0.0 | 0.00 | 0.01 | 0.01 | 94 | 1012.0 |
| 20260905143758 | 74 | 56 | 0.0 | 0.0 | 0.00 | 0.01 | 0.01 | 95 | 1012.1 |
| 20260905143253 | 73 | 55 | 0.0 | 0.0 | 0.00 | 0.01 | 0.01 | 97 | 1012.0 |
| 20260905142751 | 72 | 107 | 0.0 | 0.0 | 0.00 | 0.01 | 0.01 | 99 | 1012.0 |
| 20260905142246 | 71 | 95 | 0.0 | 0.0 | 0.00 | 0.01 | 0.01 | 99 | 1011.8 |
| 20260905141742 | 72 | 123 | 1.0 | 2.0 | 0.00 | 0.01 | 0.01 | 99 | 1011.7 |
| 20260905141238 | 71 | 63 | 1.0 | 1.0 | 0.00 | 0.01 | 0.01 | 99 | 1011.8 |
| 20260905140733 | 71 | 28 | 0.0 | 0.0 | 0.00 | 0.01 | 0.01 | 99 | 1011.7 |
| 20260905140227 | 70 | 231 | 0.0 | 0.0 | 0.00 | 0.01 | 0.01 | 99 | 1011.8 |
| 20260905135726 | 71 | 203 | 0.0 | 0.0 | 0.00 | 0.01 | 0.01 | 99 | 1012.1 |
| 20260905135223 | 71 | 174 | 0.0 | 0.0 | 0.00 | 0.01 | 0.01 | 99 | 1011.9 |
| 20260905134722 | 70 | 174 | 0.0 | 0.0 | 0.00 | 0.01 | 0.01 | 99 | 1012.2 |
| 20260905134221 | 70 | 151 | 0.0 | 0.0 | 0.00 | 0.01 | 0.01 | 99 | 1012.0 |
| 20260905133716 | 70 | 111 | 0.0 | 0.0 | 0.00 | 0.01 | 0.01 | 99 | 1012.1 |
| 20260905133211 | 70 | 136 | 0.0 | 0.0 | 0.00 | 0.01 | 0.01 | 99 | 1011.9 |
| 20260905132710 | 70 | 166 | 0.0 | 0.0 | 0.00 | 0.01 | 0.01 | 99 | 1012.0 |
| 20260905132206 | 69 | 167 | 0.0 | 0.0 | 0.00 | 0.01 | 0.01 | 99 | 1012.3 |
| 20260905131701 | 69 | 163 | 0.0 | 0.0 | 0.00 | 0.01 | 0.01 | 99 | 1012.4 |
| 20260905131155 | 69 | 146 | 0.0 | 0.0 | 0.00 | 0.01 | 0.01 | 99 | 1012.5 |
| 20260905130650 | 69 | 128 | 0.0 | 0.0 | 0.00 | 0.01 | 0.01 | 99 | 1012.1 |
| 20260905130150 | 69 | 118 | 0.0 | 0.0 | 0.00 | 0.01 | 0.01 | 99 | 1012.2 |
| 20260905125644 | 69 | 142 | 0.0 | 0.0 | 0.00 | 0.01 | 0.01 | 99 | 1012.0 |
| 20260905125140 | 69 | 121 | 0.0 | 0.0 | 0.00 | 0.01 | 0.01 | 99 | 1012.0 |
| 20260905124636 | 69 | 147 | 0.0 | 0.0 | 0.00 | 0.01 | 0.01 | 99 | 1011.7 |
| 20260905124132 | 69 | 135 | 0.0 | 1.0 | 0.00 | 0.01 | 0.01 | 99 | 1011.9 |
| 20260905123627 | 69 | 83 | 0.0 | 0.0 | 0.00 | 0.01 | 0.01 | 99 | 1012.0 |
| 20260905123124 | 69 | 60 | 0.0 | 0.0 | 0.00 | 0.01 | 0.01 | 99 | 1012.2 |
| 20260905122618 | 69 | 59 | 0.0 | 0.0 | 0.00 | 0.01 | 0.01 | 99 | 1012.1 |
| 20260905122119 | 68 | 49 | 0.0 | 0.0 | 0.00 | 0.01 | 0.01 | 99 | 1012.1 |
| 20260905121613 | 68 | 49 | 0.0 | 0.0 | 0.00 | 0.01 | 0.01 | 99 | 1012.0 |
| 20260905121109 | 68 | 49 | 0.0 | 0.0 | 0.00 | 0.01 | 0.01 | 99 | 1011.9 |
| 20260905120608 | 68 | 49 | 0.0 | 0.0 | 0.00 | 0.01 | 0.01 | 99 | 1011.8 |
| 20260905115602 | 68 | 49 | 0.0 | 0.0 | 0.00 | 0.01 | 0.01 | 99 | 1011.7 |
| 20260905115056 | 68 | 49 | 0.0 | 0.0 | 0.00 | 0.01 | 0.01 | 99 | 1011.7 |
| 20260905114556 | 68 | 49 | 0.0 | 0.0 | 0.00 | 0.01 | 0.01 | 99 | 1011.5 |
| 20260905114055 | 68 | 49 | 0.0 | 0.0 | 0.00 | 0.01 | 0.01 | 99 | 1011.7 |
| 20260905113550 | 68 | 49 | 0.0 | 0.0 | 0.00 | 0.01 | 0.01 | 99 | 1011.6 |
| 20260905113045 | 68 | 49 | 0.0 | 0.0 | 0.00 | 0.01 | 0.01 | 99 | 1011.5 |
| 20260905112541 | 68 | 49 | 0.0 | 0.0 | 0.00 | 0.01 | 0.01 | 99 | 1011.5 |
| 20260905112036 | 68 | 49 | 0.0 | 0.0 | 0.00 | 0.01 | 0.01 | 99 | 1011.4 |
| 20260905111531 | 68 | 49 | 0.0 | 0.0 | 0.00 | 0.01 | 0.01 | 99 | 1011.7 |
| 20260905111030 | 67 | 56 | 0.0 | 0.0 | 0.00 | 0.01 | 0.01 | 99 | 1011.6 |
| 20260905110529 | 67 | 75 | 0.0 | 0.0 | 0.00 | 0.01 | 0.01 | 99 | 1011.5 |
| 20260905110025 | 67 | 82 | 0.0 | 0.0 | 0.00 | 0.01 | 0.01 | 99 | 1011.7 |
| 20260905105519 | 68 | 96 | 0.0 | 0.0 | 0.05 | 0.01 | 0.01 | 99 | 1011.6 |
| 20260905105018 | 68 | 99 | 0.0 | 0.0 | 0.05 | 0.01 | 0.01 | 99 | 1011.7 |
| 20260905104515 | 68 | 99 | 0.0 | 0.0 | 0.00 | 0.00 | 0.00 | 99 | 1011.8 |
| 20260905104014 | 68 | 149 | 0.0 | 0.0 | 0.00 | 0.00 | 0.00 | 99 | 1011.7 |
| 20260905103509 | 68 | 150 | 0.0 | 0.0 | 0.00 | 0.00 | 0.00 | 99 | 1012.0 |
| 20260905103005 | 68 | 166 | 0.0 | 0.0 | 0.00 | 0.00 | 0.00 | 99 | 1012.2 |
| 20260905102501 | 68 | 166 | 0.0 | 0.0 | 0.00 | 0.00 | 0.00 | 99 | 1012.3 |
| 20260905101956 | 68 | 167 | 0.0 | 0.0 | 0.00 | 0.00 | 0.00 | 99 | 1012.4 |
| 20260905101455 | 67 | 140 | 0.0 | 0.0 | 0.00 | 0.00 | 0.00 | 99 | 1012.7 |
| 20260905100954 | 67 | 110 | 0.0 | 0.0 | 0.00 | 0.00 | 0.00 | 99 | 1012.8 |
| 20260905100450 | 67 | 108 | 0.0 | 0.0 | 0.00 | 0.00 | 0.00 | 99 | 1012.8 |
| 20260905095949 | 67 | 108 | 0.0 | 0.0 | 0.00 | 0.00 | 0.00 | 99 | 1012.9 |
| 20260905095444 | 67 | 108 | 0.0 | 0.0 | 0.00 | 0.00 | 0.00 | 99 | 1012.9 |
| 20260905094939 | 67 | 108 | 0.0 | 0.0 | 0.00 | 0.00 | 0.00 | 99 | 1012.7 |
| 20260905094435 | 67 | 108 | 0.0 | 0.0 | 0.00 | 0.00 | 0.00 | 99 | 1012.4 |
| 20260905093933 | 67 | 108 | 0.0 | 0.0 | 0.00 | 0.00 | 0.00 | 99 | 1012.3 |
| 20260905093429 | 67 | 108 | 0.0 | 0.0 | 0.00 | 0.00 | 0.00 | 99 | 1011.9 |
| 20260905092924 | 67 | 107 | 0.0 | 0.0 | 0.00 | 0.00 | 0.00 | 99 | 1011.9 |
| 20260905092419 | 67 | 107 | 0.0 | 0.0 | 0.00 | 0.00 | 0.00 | 99 | 1011.8 |
| 20260905091914 | 67 | 107 | 0.0 | 0.0 | 0.00 | 0.00 | 0.00 | 99 | 1011.4 |
| 20260905091409 | 67 | 107 | 0.0 | 0.0 | 0.00 | 0.00 | 0.00 | 99 | 1011.6 |
| 20260905090908 | 67 | 107 | 0.0 | 0.0 | 0.00 | 0.00 | 0.00 | 99 | 1011.2 |
| 20260905090404 | 67 | 107 | 0.0 | 0.0 | 0.00 | 0.00 | 0.00 | 99 | 1011.0 |
| 20260905085903 | 67 | 107 | 0.0 | 0.0 | 0.00 | 0.00 | 0.00 | 99 | 1011.3 |
| 20260905085403 | 67 | 107 | 0.0 | 0.0 | 0.00 | 0.00 | 0.00 | 99 | 1011.3 |
| 20260905084859 | 67 | 107 | 0.0 | 0.0 | 0.00 | 0.00 | 0.00 | 99 | 1011.3 |
| 20260905084357 | 67 | 107 | 0.0 | 0.0 | 0.00 | 0.00 | 0.00 | 99 | 1011.3 |
| 20260905083853 | 67 | 107 | 0.0 | 0.0 | 0.00 | 0.00 | 0.00 | 99 | 1011.4 |
| 20260905083348 | 67 | 107 | 0.0 | 0.0 | 0.00 | 0.00 | 0.00 | 99 | 1011.4 |
| 20260905082844 | 67 | 107 | 0.0 | 0.0 | 0.00 | 0.00 | 0.00 | 99 | 1011.2 |
| 20260905082340 | 67 | 107 | 0.0 | 0.0 | 0.00 | 0.00 | 0.00 | 99 | 1011.1 |
| 20260905081835 | 67 | 106 | 0.0 | 0.0 | 0.00 | 0.00 | 0.00 | 99 | 1010.8 |
| 20260905081330 | 67 | 106 | 0.0 | 0.0 | 0.00 | 0.00 | 0.00 | 99 | 1010.4 |
| 20260905080829 | 67 | 106 | 0.0 | 0.0 | 0.00 | 0.00 | 0.00 | 99 | 1010.7 |
| 20260905080324 | 67 | 106 | 0.0 | 0.0 | 0.00 | 0.00 | 0.00 | 99 | 1010.7 |
| 20260905075822 | 67 | 106 | 0.0 | 0.0 | 0.00 | 0.00 | 0.00 | 99 | 1010.9 |
| 20260905075322 | 67 | 106 | 0.0 | 0.0 | 0.00 | 0.00 | 0.00 | 99 | 1010.9 |
| 20260905074821 | 67 | 106 | 0.0 | 0.0 | 0.00 | 0.00 | 0.00 | 99 | 1010.9 |
| 20260905074317 | 67 | 106 | 0.0 | 0.0 | 0.00 | 0.00 | 0.00 | 99 | 1011.2 |
| 20260905073812 | 67 | 106 | 0.0 | 0.0 | 0.00 | 0.00 | 0.00 | 99 | 1011.2 |
| 20260905073308 | 67 | 106 | 0.0 | 0.0 | 0.00 | 0.00 | 0.00 | 99 | 1011.2 |
| 20260905072802 | 67 | 106 | 0.0 | 0.0 | 0.00 | 0.00 | 0.00 | 99 | 1011.0 |
| 20260905072257 | 67 | 106 | 0.0 | 0.0 | 0.00 | 0.00 | 0.00 | 99 | 1010.9 |
| 20260905071754 | 67 | 106 | 0.0 | 0.0 | 0.00 | 0.00 | 0.00 | 99 | 1011.0 |
| 20260905071249 | 67 | 106 | 0.0 | 0.0 | 0.00 | 0.00 | 0.00 | 99 | 1011.2 |
| 20260905070744 | 67 | 106 | 0.0 | 0.0 | 0.00 | 0.00 | 0.00 | 99 | 1011.2 |
| 20260905070241 | 67 | 106 | 0.0 | 0.0 | 0.00 | 0.00 | 0.00 | 99 | 1011.3 |
| 20260905065739 | 67 | 99 | 0.0 | 0.0 | 0.00 | 0.00 | 0.00 | 99 | 1011.2 |
| 20260905065239 | 67 | 99 | 0.0 | 0.0 | 0.00 | 0.00 | 0.00 | 99 | 1011.1 |
| 20260905064734 | 67 | 99 | 0.0 | 0.0 | 0.00 | 0.00 | 0.00 | 99 | 1011.2 |
| 20260905064229 | 67 | 99 | 0.0 | 0.0 | 0.00 | 0.00 | 0.00 | 99 | 1011.3 |
| 20260905063728 | 67 | 99 | 0.0 | 0.0 | 0.00 | 0.00 | 0.00 | 99 | 1011.3 |
| 20260905063224 | 67 | 99 | 0.0 | 0.0 | 0.00 | 0.00 | 0.00 | 99 | 1011.7 |
| 20260905062720 | 67 | 98 | 0.0 | 0.0 | 0.00 | 0.00 | 0.00 | 99 | 1011.6 |
| 20260905062214 | 67 | 98 | 0.0 | 0.0 | 0.00 | 0.00 | 0.00 | 99 | 1011.7 |
| 20260905061713 | 67 | 97 | 0.0 | 0.0 | 0.00 | 0.00 | 0.00 | 99 | 1011.9 |
| 20260905061208 | 67 | 97 | 0.0 | 0.0 | 0.00 | 0.00 | 0.00 | 99 | 1011.6 |
| 20260905060703 | 67 | 96 | 0.0 | 0.0 | 0.00 | 0.00 | 0.00 | 99 | 1012.0 |
| 20260905060200 | 68 | 96 | 0.0 | 0.0 | 0.00 | 0.00 | 0.00 | 99 | 1012.1 |
| 20260905055658 | 68 | 97 | 0.0 | 0.0 | 0.00 | 0.00 | 0.00 | 99 | 1011.9 |
| 20260905055154 | 67 | 96 | 0.0 | 0.0 | 0.00 | 0.00 | 0.00 | 99 | 1012.1 |
| 20260905054649 | 68 | 97 | 0.0 | 0.0 | 0.00 | 0.00 | 0.00 | 99 | 1012.2 |
| 20260905054145 | 67 | 97 | 0.0 | 0.0 | 0.00 | 0.00 | 0.00 | 99 | 1012.4 |
| 20260905053644 | 67 | 97 | 0.0 | 0.0 | 0.00 | 0.00 | 0.00 | 99 | 1012.2 |
| 20260905053140 | 67 | 97 | 0.0 | 0.0 | 0.00 | 0.00 | 0.00 | 99 | 1012.5 |
| 20260905052639 | 67 | 96 | 0.0 | 0.0 | 0.00 | 0.00 | 0.00 | 99 | 1012.4 |
| 20260905052134 | 67 | 96 | 0.0 | 0.0 | 0.00 | 0.00 | 0.00 | 99 | 1012.5 |
| 20260905051629 | 67 | 96 | 0.0 | 0.0 | 0.00 | 0.00 | 0.00 | 99 | 1012.7 |
| 20260905051126 | 67 | 97 | 0.0 | 0.0 | 0.00 | 0.00 | 0.00 | 99 | 1012.6 |
| 20260905050622 | 67 | 96 | 0.0 | 0.0 | 0.00 | 0.00 | 0.00 | 99 | 1012.5 |
| 20260905050119 | 67 | 97 | 0.0 | 0.0 | 0.00 | 0.00 | 0.00 | 99 | 1012.4 |
| 20260905045618 | 67 | 96 | 0.0 | 0.0 | 0.00 | 0.00 | 0.00 | 99 | 1012.6 |
| 20260905045114 | 67 | 96 | 0.0 | 0.0 | 0.00 | 0.00 | 0.00 | 99 | 1012.3 |
| 20260905044613 | 68 | 96 | 0.0 | 0.0 | 0.00 | 0.00 | 0.00 | 99 | 1012.5 |
| 20260905044108 | 68 | 96 | 0.0 | 0.0 | 0.00 | 0.00 | 0.00 | 99 | 1012.2 |
| 20260905043607 | 68 | 96 | 0.0 | 0.0 | 0.00 | 0.00 | 0.00 | 99 | 1012.4 |
| 20260905043102 | 68 | 94 | 0.0 | 0.0 | 0.00 | 0.00 | 0.00 | 99 | 1012.6 |
| 20260905042601 | 68 | 93 | 0.0 | 0.0 | 0.00 | 0.00 | 0.00 | 99 | 1012.7 |
| 20260905042056 | 68 | 93 | 0.0 | 0.0 | 0.00 | 0.00 | 0.00 | 99 | 1012.7 |
| 20260905041552 | 68 | 93 | 0.0 | 0.0 | 0.00 | 0.00 | 0.00 | 99 | 1012.6 |
| 20260905041047 | 68 | 93 | 0.0 | 0.0 | 0.00 | 0.00 | 0.00 | 99 | 1012.6 |
| 20260905040547 | 68 | 93 | 0.0 | 0.0 | 0.00 | 0.00 | 0.00 | 99 | 1012.7 |
| 20260905040045 | 68 | 93 | 0.0 | 0.0 | 0.00 | 0.00 | 0.00 | 99 | 1012.6 |
| 20260905035541 | 68 | 93 | 0.0 | 0.0 | 0.00 | 0.09 | 0.09 | 99 | 1012.6 |
| 20260905035038 | 68 | 94 | 0.0 | 0.0 | 0.00 | 0.09 | 0.09 | 99 | 1012.6 |
| 20260905034533 | 68 | 93 | 0.0 | 0.0 | 0.00 | 0.09 | 0.09 | 99 | 1012.5 |
| 20260905034033 | 68 | 93 | 0.0 | 0.0 | 0.00 | 0.09 | 0.09 | 99 | 1012.6 |
| 20260905033527 | 68 | 93 | 0.0 | 0.0 | 0.00 | 0.09 | 0.09 | 99 | 1012.7 |
| 20260905033023 | 68 | 93 | 0.0 | 0.0 | 0.00 | 0.09 | 0.09 | 99 | 1012.7 |
| 20260905032518 | 68 | 93 | 0.0 | 0.0 | 0.00 | 0.09 | 0.09 | 99 | 1012.4 |
| 20260905032013 | 68 | 93 | 0.0 | 0.0 | 0.00 | 0.09 | 0.09 | 99 | 1012.4 |
| 20260905031509 | 68 | 93 | 0.0 | 0.0 | 0.00 | 0.09 | 0.09 | 99 | 1012.6 |
| 20260905031008 | 68 | 93 | 0.0 | 0.0 | 0.00 | 0.09 | 0.09 | 99 | 1012.6 |
| 20260905030504 | 68 | 93 | 0.0 | 0.0 | 0.00 | 0.09 | 0.09 | 99 | 1012.6 |
| 20260905030002 | 69 | 93 | 0.0 | 0.0 | 0.00 | 0.09 | 0.09 | 99 | 1012.5 |
| 20260905025458 | 69 | 93 | 0.0 | 0.0 | 0.00 | 0.09 | 0.09 | 99 | 1012.4 |
| 20260905024955 | 69 | 93 | 0.0 | 0.0 | 0.00 | 0.09 | 0.09 | 99 | 1012.4 |
| 20260905024454 | 69 | 93 | 0.0 | 0.0 | 0.00 | 0.09 | 0.09 | 99 | 1012.5 |
| 20260905023950 | 69 | 93 | 0.0 | 0.0 | 0.00 | 0.09 | 0.09 | 99 | 1012.6 |
| 20260905023445 | 69 | 93 | 0.0 | 0.0 | 0.00 | 0.09 | 0.09 | 99 | 1012.7 |
| 20260905022944 | 69 | 93 | 0.0 | 0.0 | 0.00 | 0.09 | 0.09 | 99 | 1012.7 |
| 20260905022439 | 69 | 93 | 0.0 | 0.0 | 0.00 | 0.09 | 0.09 | 99 | 1012.6 |
| 20260905021935 | 69 | 93 | 0.0 | 0.0 | 0.00 | 0.09 | 0.09 | 99 | 1012.3 |
| 20260905021435 | 69 | 93 | 0.0 | 0.0 | 0.00 | 0.09 | 0.09 | 99 | 1012.6 |
| 20260905020930 | 69 | 93 | 0.0 | 0.0 | 0.00 | 0.09 | 0.09 | 99 | 1012.4 |
| 20260905020429 | 69 | 93 | 0.0 | 0.0 | 0.00 | 0.09 | 0.09 | 99 | 1012.4 |
| 20260905015924 | 70 | 93 | 0.0 | 0.0 | 0.00 | 0.09 | 0.09 | 99 | 1012.4 |
| 20260905015422 | 70 | 92 | 0.0 | 0.0 | 0.00 | 0.09 | 0.09 | 99 | 1012.7 |
| 20260905014921 | 70 | 92 | 0.0 | 0.0 | 0.00 | 0.09 | 0.09 | 99 | 1012.5 |
| 20260905014417 | 70 | 93 | 0.0 | 0.0 | 0.00 | 0.09 | 0.09 | 99 | 1012.6 |
| 20260905013912 | 70 | 92 | 0.0 | 0.0 | 0.00 | 0.09 | 0.09 | 99 | 1012.6 |
| 20260905013409 | 70 | 92 | 0.0 | 0.0 | 0.00 | 0.09 | 0.09 | 99 | 1012.7 |
| 20260905012904 | 70 | 92 | 0.0 | 0.0 | 0.00 | 0.09 | 0.09 | 99 | 1012.7 |
| 20260905012359 | 70 | 92 | 0.0 | 0.0 | 0.00 | 0.09 | 0.09 | 99 | 1012.7 |
| 20260905011856 | 70 | 92 | 0.0 | 0.0 | 0.00 | 0.09 | 0.09 | 99 | 1012.6 |
| 20260905011351 | 70 | 92 | 0.0 | 0.0 | 0.00 | 0.09 | 0.09 | 99 | 1012.7 |
| 20260905010846 | 71 | 92 | 0.0 | 0.0 | 0.00 | 0.09 | 0.09 | 99 | 1012.6 |
| 20260905010341 | 70 | 92 | 0.0 | 0.0 | 0.00 | 0.09 | 0.09 | 99 | 1012.5 |
| 20260905005837 | 71 | 92 | 0.0 | 0.0 | 0.00 | 0.09 | 0.09 | 99 | 1012.5 |
| 20260905005333 | 71 | 92 | 0.0 | 0.0 | 0.00 | 0.09 | 0.09 | 99 | 1012.5 |
| 20260905004828 | 71 | 93 | 0.0 | 0.0 | 0.00 | 0.09 | 0.09 | 99 | 1012.6 |
| 20260905004323 | 71 | 92 | 0.0 | 0.0 | 0.00 | 0.09 | 0.09 | 99 | 1012.6 |
| 20260905003818 | 71 | 92 | 0.0 | 0.0 | 0.00 | 0.09 | 0.09 | 99 | 1012.4 |
| 20260905003314 | 72 | 92 | 0.0 | 0.0 | 0.00 | 0.09 | 0.09 | 99 | 1012.4 |
| 20260905002815 | 72 | 92 | 0.0 | 0.0 | 0.00 | 0.09 | 0.09 | 99 | 1012.4 |
| 20260905002309 | 72 | 92 | 0.0 | 0.0 | 0.00 | 0.09 | 0.09 | 99 | 1012.6 |
| 20260905001804 | 72 | 92 | 0.0 | 0.0 | 0.00 | 0.09 | 0.09 | 99 | 1012.6 |
| 20260905001304 | 73 | 92 | 0.0 | 0.0 | 0.00 | 0.09 | 0.09 | 99 | 1012.6 |
| 20260905000759 | 73 | 92 | 0.0 | 0.0 | 0.00 | 0.09 | 0.09 | 98 | 1012.5 |
| 20260905000255 | 73 | 92 | 0.0 | 0.0 | 0.00 | 0.09 | 0.09 | 98 | 1012.7 |
| 20260904235749 | 73 | 92 | 0.0 | 0.0 | 0.00 | 0.09 | 0.09 | 97 | 1012.3 |
| 20260904235244 | 74 | 92 | 0.0 | 0.0 | 0.00 | 0.09 | 0.09 | 96 | 1012.5 |
| 20260904234739 | 74 | 92 | 0.0 | 0.0 | 0.00 | 0.09 | 0.09 | 96 | 1012.4 |
| 20260904234234 | 75 | 92 | 0.0 | 0.0 | 0.00 | 0.09 | 0.09 | 95 | 1012.5 |
| 20260904233730 | 75 | 92 | 0.0 | 0.0 | 0.00 | 0.09 | 0.09 | 94 | 1012.6 |
| 20260904233226 | 75 | 92 | 0.0 | 0.0 | 0.00 | 0.09 | 0.09 | 93 | 1012.6 |
| 20260904232722 | 75 | 93 | 0.0 | 0.0 | 0.00 | 0.09 | 0.09 | 92 | 1012.8 |
| 20260904232218 | 75 | 93 | 0.0 | 0.0 | 0.00 | 0.09 | 0.09 | 91 | 1012.7 |
| 20260904231714 | 75 | 92 | 0.0 | 0.0 | 0.00 | 0.09 | 0.09 | 92 | 1012.6 |
| 20260904231209 | 75 | 93 | 0.0 | 0.0 | 0.00 | 0.09 | 0.09 | 91 | 1012.4 |
| 20260904230709 | 75 | 88 | 0.0 | 0.0 | 0.00 | 0.09 | 0.09 | 93 | 1012.5 |
| 20260904230203 | 75 | 88 | 0.0 | 0.0 | 0.00 | 0.09 | 0.09 | 94 | 1012.3 |
| 20260904225702 | 76 | 50 | 0.0 | 0.0 | 0.00 | 0.09 | 0.09 | 92 | 1012.7 |
| 20260904225156 | 75 | 37 | 0.0 | 0.0 | 0.00 | 0.09 | 0.09 | 92 | 1012.5 |
| 20260904224650 | 76 | 37 | 0.0 | 0.0 | 0.00 | 0.09 | 0.09 | 93 | 1012.5 |
| 20260904224145 | 76 | 37 | 0.0 | 0.0 | 0.00 | 0.09 | 0.09 | 91 | 1012.5 |
| 20260904223644 | 76 | 37 | 0.0 | 0.0 | 0.00 | 0.09 | 0.09 | 90 | 1012.7 |
| 20260904223140 | 75 | 37 | 0.0 | 0.0 | 0.00 | 0.09 | 0.09 | 90 | 1012.3 |
| 20260904222636 | 76 | 37 | 0.0 | 0.0 | 0.00 | 0.09 | 0.09 | 92 | 1012.4 |
| 20260904222131 | 76 | 37 | 0.0 | 0.0 | 0.00 | 0.09 | 0.09 | 90 | 1012.5 |
| 20260904221630 | 76 | 37 | 0.0 | 0.0 | 0.00 | 0.09 | 0.09 | 91 | 1012.3 |
| 20260904221126 | 76 | 37 | 0.0 | 0.0 | 0.00 | 0.09 | 0.09 | 90 | 1012.3 |
| 20260904220620 | 76 | 37 | 0.0 | 0.0 | 0.00 | 0.09 | 0.09 | 90 | 1012.1 |
| 20260904220115 | 77 | 73 | 0.0 | 0.0 | 0.00 | 0.09 | 0.09 | 89 | 1012.3 |
| 20260904215610 | 77 | 75 | 0.0 | 0.0 | 0.00 | 0.09 | 0.09 | 85 | 1012.0 |
| 20260904215106 | 77 | 75 | 0.0 | 0.0 | 0.00 | 0.09 | 0.09 | 86 | 1011.7 |
| 20260904214601 | 77 | 75 | 0.0 | 0.0 | 0.00 | 0.09 | 0.09 | 87 | 1011.7 |
| 20260904214056 | 77 | 75 | 0.0 | 0.0 | 0.00 | 0.09 | 0.09 | 88 | 1011.6 |
| 20260904213554 | 76 | 75 | 0.0 | 0.0 | 0.00 | 0.09 | 0.09 | 89 | 1011.7 |
| 20260904213051 | 76 | 75 | 0.0 | 0.0 | 0.00 | 0.09 | 0.09 | 89 | 1011.4 |
| 20260904212550 | 76 | 74 | 0.0 | 0.0 | 0.00 | 0.09 | 0.09 | 88 | 1011.4 |
| 20260904212046 | 76 | 350 | 0.0 | 0.0 | 0.00 | 0.09 | 0.09 | 88 | 1011.6 |
| 20260904211545 | 76 | 191 | 0.0 | 0.0 | 0.00 | 0.09 | 0.09 | 87 | 1011.5 |
| 20260904211041 | 76 | 191 | 0.0 | 0.0 | 0.00 | 0.09 | 0.09 | 88 | 1011.4 |
| 20260904210540 | 76 | 191 | 0.0 | 0.0 | 0.00 | 0.09 | 0.09 | 88 | 1011.3 |
| 20260904210036 | 77 | 191 | 0.0 | 0.0 | 0.00 | 0.09 | 0.09 | 87 | 1011.2 |
| 20260904205531 | 77 | 192 | 0.0 | 0.0 | 0.00 | 0.09 | 0.09 | 85 | 1011.4 |
| 20260904205028 | 76 | 191 | 0.0 | 0.0 | 0.00 | 0.09 | 0.09 | 85 | 1010.8 |
| 20260904204524 | 76 | 191 | 0.0 | 0.0 | 0.00 | 0.09 | 0.09 | 86 | 1010.8 |
| 20260904204019 | 76 | 172 | 1.0 | 2.0 | 0.00 | 0.09 | 0.09 | 86 | 1010.5 |
| 20260904203515 | 77 | 143 | 0.0 | 0.0 | 0.00 | 0.09 | 0.09 | 85 | 1010.8 |
| 20260904203012 | 77 | 184 | 0.0 | 0.0 | 0.00 | 0.09 | 0.09 | 86 | 1010.7 |
| 20260904202507 | 77 | 183 | 0.0 | 0.0 | 0.00 | 0.09 | 0.09 | 86 | 1011.2 |
| 20260904202003 | 77 | 183 | 0.0 | 0.0 | 0.00 | 0.09 | 0.09 | 84 | 1011.3 |
| 20260904201458 | 77 | 177 | 1.0 | 1.0 | 0.00 | 0.09 | 0.09 | 84 | 1011.2 |
| 20260904200954 | 77 | 176 | 0.0 | 1.0 | 0.00 | 0.09 | 0.09 | 85 | 1011.5 |
| 20260904200451 | 78 | 235 | 1.0 | 1.0 | 0.00 | 0.09 | 0.09 | 82 | 1011.4 |
| 20260904195946 | 77 | 266 | 1.0 | 1.0 | 0.00 | 0.09 | 0.09 | 82 | 1011.9 |
| 20260904195445 | 77 | 231 | 3.0 | 3.0 | 0.00 | 0.09 | 0.09 | 84 | 1012.1 |
| 20260904194944 | 77 | 229 | 2.0 | 2.0 | 0.00 | 0.09 | 0.09 | 84 | 1012.3 |
| 20260904194439 | 77 | 200 | 1.0 | 2.0 | 0.00 | 0.09 | 0.09 | 83 | 1012.2 |
| 20260904193934 | 78 | 270 | 2.0 | 3.0 | 0.00 | 0.09 | 0.09 | 84 | 1012.3 |
| 20260904193429 | 77 | 217 | 2.0 | 2.0 | 0.00 | 0.09 | 0.09 | 85 | 1012.5 |
| 20260904192925 | 76 | 220 | 1.0 | 1.0 | 0.00 | 0.09 | 0.09 | 88 | 1012.4 |
| 20260904192420 | 75 | 235 | 2.0 | 2.0 | 0.00 | 0.09 | 0.09 | 89 | 1012.5 |
| 20260904191916 | 74 | 205 | 3.0 | 5.0 | 0.00 | 0.09 | 0.09 | 89 | 1012.8 |
| 20260904191412 | 74 | 214 | 2.0 | 2.0 | 0.00 | 0.09 | 0.09 | 91 | 1012.6 |
| 20260904190909 | 74 | 200 | 1.0 | 1.0 | 0.00 | 0.09 | 0.09 | 93 | 1012.4 |
| 20260904190404 | 74 | 203 | 1.0 | 1.0 | 0.00 | 0.09 | 0.09 | 94 | 1012.9 |
| 20260904185900 | 73 | 203 | 1.0 | 1.0 | 0.00 | 0.09 | 0.09 | 95 | 1013.2 |
| 20260904185356 | 72 | 195 | 1.0 | 2.0 | 0.00 | 0.09 | 0.09 | 96 | 1012.9 |
| 20260904184855 | 72 | 185 | 1.0 | 1.0 | 0.00 | 0.09 | 0.09 | 97 | 1012.4 |
| 20260904184350 | 72 | 178 | 1.0 | 2.0 | 0.00 | 0.09 | 0.09 | 96 | 1012.5 |
| 20260904183846 | 71 | 154 | 3.0 | 3.0 | 0.00 | 0.09 | 0.09 | 96 | 1013.0 |
| 20260904183341 | 71 | 34 | 1.0 | 1.0 | 0.00 | 0.09 | 0.09 | 98 | 1013.4 |
| 20260904182836 | 71 | 171 | 2.0 | 3.0 | 0.00 | 0.09 | 0.09 | 98 | 1013.3 |
| 20260904182331 | 71 | 256 | 0.0 | 0.0 | 0.00 | 0.09 | 0.09 | 99 | 1013.3 |
| 20260904181827 | 71 | 221 | 0.0 | 0.0 | 0.00 | 0.09 | 0.09 | 99 | 1012.8 |
| 20260904181326 | 71 | 203 | 3.0 | 3.0 | 0.00 | 0.09 | 0.09 | 99 | 1013.3 |
| 20260904180822 | 71 | 201 | 1.0 | 1.0 | 0.00 | 0.09 | 0.09 | 99 | 1013.9 |
| 20260904180317 | 71 | 200 | 0.0 | 0.0 | 0.00 | 0.09 | 0.09 | 99 | 1014.3 |
| 20260904175816 | 71 | 136 | 0.0 | 0.0 | 0.00 | 0.09 | 0.09 | 99 | 1014.6 |
| 20260904175314 | 71 | 136 | 0.0 | 0.0 | 0.00 | 0.09 | 0.09 | 99 | 1015.1 |
| 20260904174809 | 71 | 31 | 0.0 | 1.0 | 0.00 | 0.09 | 0.09 | 99 | 1015.4 |
| 20260904174305 | 71 | 338 | 1.0 | 1.0 | 0.00 | 0.09 | 0.09 | 99 | 1015.3 |
| 20260904173801 | 71 | 22 | 1.0 | 1.0 | 0.00 | 0.09 | 0.09 | 99 | 1015.1 |
| 20260904173256 | 71 | 3 | 1.0 | 1.0 | 0.00 | 0.09 | 0.09 | 99 | 1015.2 |
| 20260904172752 | 71 | 346 | 1.0 | 1.0 | 0.00 | 0.09 | 0.09 | 99 | 1015.2 |
| 20260904172251 | 71 | 318 | 1.0 | 1.0 | 0.00 | 0.09 | 0.09 | 99 | 1015.0 |
| 20260904171746 | 71 | 29 | 3.0 | 6.0 | 0.00 | 0.09 | 0.09 | 99 | 1015.1 |
| 20260904171241 | 72 | 322 | 4.0 | 5.0 | 0.00 | 0.09 | 0.09 | 99 | 1015.2 |
| 20260904170738 | 71 | 39 | 0.0 | 1.0 | 0.00 | 0.09 | 0.09 | 99 | 1015.1 |
| 20260904170233 | 71 | 33 | 1.0 | 2.0 | 0.00 | 0.09 | 0.09 | 99 | 1015.0 |
| 20260904165733 | 71 | 6 | 2.0 | 2.0 | 0.00 | 0.09 | 0.09 | 99 | 1015.0 |
| 20260904165227 | 71 | 7 | 5.0 | 7.0 | 0.00 | 0.09 | 0.09 | 99 | 1014.8 |
| 20260904164727 | 71 | 12 | 5.0 | 6.0 | 0.00 | 0.09 | 0.09 | 99 | 1014.9 |
| 20260904164221 | 70 | 19 | 5.0 | 6.0 | 0.00 | 0.09 | 0.09 | 99 | 1015.0 |
| 20260904163718 | 70 | 30 | 5.0 | 9.0 | 0.00 | 0.09 | 0.09 | 99 | 1015.3 |
| 20260904163213 | 70 | 19 | 1.0 | 2.0 | 0.00 | 0.09 | 0.09 | 99 | 1015.0 |
| 20260904162712 | 70 | 17 | 4.0 | 6.0 | 0.00 | 0.09 | 0.09 | 99 | 1015.0 |
| 20260904162207 | 70 | 14 | 5.0 | 8.0 | 0.00 | 0.09 | 0.09 | 99 | 1015.4 |